Location: Newark
(29.9790°N, 31.1340°E)
Time: 07:16:20
(UTC+00:00)

Vanguard 3 - Pass Details

Date: 19 January 2020
Orbit: 508 x 3263 km, 33.3° (Epoch: 20 February)

Event Time Altitude Azimuth Distance (km) Brightness Sun altitude
Rises 19:03:07 0° 268° (W) 7,059 12.6 -47.8°
Reaches altitude 10° 19:08:17 10° 270° (W) 5,814 12.0 -48.9°
Enters shadow 19:21:35 57° 288° (WNW) 2,592 9.6 -51.7°
